Location: Red Deer
(52.2681°N, 113.8112°W)
Time: 04:38:53
(UTC-06:00)

EO-79 - Visible Passes

Search period start: 22 May 2022 00:00
Search period end: 01 June 2022 00:00
Orbit: 587 x 606 km, 98.0° (Epoch: 21 May)

Date Brightness Start Highest point End Pass type
(mag) Time Alt. Az. Time Alt. Az. Time Alt. Az.
22 May ? 02:44:28 10° NNE 02:48:15 32° E 02:50:58 16° SSE visible
22 May ? 04:20:09 10° N 04:23:52 32° WNW 04:27:35 10° SW visible
23 May ? 02:54:26 10° NNE 02:58:23 40° E 03:01:12 17° SSE visible
23 May ? 04:30:22 10° N 04:33:52 27° WNW 04:37:22 10° WSW visible
24 May ? 03:04:25 10° NNE 03:08:29 50° E 03:11:25 18° S visible
24 May ? 04:40:36 10° N 04:43:51 22° WNW 04:47:05 10° WSW visible
25 May ? 03:14:25 10° NNE 03:18:33 62° ESE 03:21:37 17° S visible
26 May ? 01:52:00 10° E 01:52:15 10° E 01:52:29 10° E visible
26 May ? 03:24:26 10° NNE 03:28:37 78° ESE 03:31:49 17° S visible
27 May ? 02:00:33 10° ENE 02:02:25 13° E 02:04:17 10° ESE visible
27 May ? 03:34:28 10° NNE 03:38:39 84° WNW 03:42:00 16° SSW visible
28 May ? 02:10:01 10° NE 02:12:34 16° E 02:15:06 10° SE visible
28 May ? 03:44:31 10° N 03:48:40 68° WNW 03:52:10 14° SSW visible
29 May ? 02:19:40 10° NE 02:22:42 19° E 02:25:39 10° SE visible
29 May ? 03:54:34 10° N 03:58:39 55° WNW 04:02:20 12° SW visible
30 May ? 02:29:25 10° NE 02:32:48 23° E 02:35:49 12° SE visible
30 May ? 04:04:39 10° N 04:08:38 44° WNW 04:12:29 11° SW visible
31 May ? 02:39:14 10° NE 02:42:53 28° E 02:45:58 13° SSE visible
31 May ? 04:14:45 10° N 04:18:35 36° WNW 04:22:24 10° SW visible
